Waarnemingen

Advertentie
Mijn weer
Agen, Frankrijk (7524): temperatuur & dauwpunt: 15.01.2017 11:00:00 - 21.01.2017 11:00:00 (CET)Agen, Frankrijk (7524): temperatuur 5cm: 15.01.2017 11:00:00 - 21.01.2017 11:00:00 (CET)Agen, Frankrijk (7524): temperatuur -20cm & temperatuur -100cm: 15.01.2017 11:00:00 - 21.01.2017 11:00:00 (CET)Agen, Frankrijk (7524): windsnelheid & windstoten: 15.01.2017 11:00:00 - 21.01.2017 11:00:00 (CET)Agen, Frankrijk (7524): windrichting: 15.01.2017 11:00:00 - 21.01.2017 11:00:00 (CET)Agen, Frankrijk (7524): luchtdruk: 15.01.2017 11:00:00 - 21.01.2017 11:00:00 (CET)Agen, Frankrijk (7524): zicht: 15.01.2017 11:00:00 - 21.01.2017 11:00:00 (CET)Agen, Frankrijk (7524): Zonneschijnduur: 15.01.2017 11:00:00 - 21.01.2017 11:00:00 (CET)Agen, Frankrijk (7524): neerslag: 15.01.2017 11:00:00 - 21.01.2017 11:00:00 (CET)
Datum & Tijd tt [°C] td [°C] tt 5cm [°C] tt -20cm [°C] tt -100cm [°C] ff [km/u] ff [kn] fx [km/u] fx [kn] dd ppp [hPa] vv [km] sd [min] rr [mm]
21.01.2017 11:00:00 3,9 -1,5 1,6 4,0 8,8 8 5 11 6 OZO 1024,0 14 60 0,0
21.01.2017 10:00:00 1,4 -2,0 -5,9 4,1 8,8 8 4 11 6 OZO 1023,8 16 60 0,0
21.01.2017 09:00:00 -3,4 -4,7 -7,5 4,1 8,8 5 3 9 5 OZO 1024,1 11 11 0,0
21.01.2017 08:00:00 -4,1 -5,5 -8,4 4,1 8,9 5 3 6 3 O 1023,8 11 0 0,0
21.01.2017 07:00:00 -3,6 -4,7 -8,2 4,1 8,9 2 1 4 2 OZO 1023,8 9 0 0,0
21.01.2017 06:00:00 -2,5 -4,2 -7,3 4,1 8,9 2 1 6 3 OZO 1023,7 13 0 0,0
21.01.2017 05:00:00 -0,7 -2,8 -7,4 4,1 8,9 5 3 9 5 OZO 1023,9 21 0 0,0
21.01.2017 04:00:00 -1,0 -3,8 -6,7 4,2 8,9 8 4 11 6 ZO 1024,4 20 0 0,0
21.01.2017 03:00:00 -1,6 -3,8 -6,5 4,1 8,9 4 2 8 4 ZO 1024,5 16 0 0,0
21.01.2017 02:00:00 0,2 -2,5 -5,5 4,1 8,9 8 4 11 6 OZO 1024,7 19 0 0,0
21.01.2017 01:00:00 0,3 -2,4 -6,2 4,1 8,9 6 3 8 4 ZO 1024,8 16 0 0,0
21.01.2017 00:00:00 -1,6 -3,3 -6,2 4,1 8,9 6 4 8 4 OZO 1025,0 13 0 0,0
20.01.2017 23:00:00 -0,4 -2,6 -5,4 4,1 9,0 0 0 4 2 N 1025,2 10 0 0,0
20.01.2017 22:00:00 1,0 -1,1 -3,4 4,1 9,0 0 0 9 5 N 1025,1 15 0 0,0
20.01.2017 21:00:00 3,3 -0,3 -1,8 4,0 9,0 5 3 6 3 ZO 1025,1 14 0 0,0
20.01.2017 20:00:00 2,0 -0,6 -3,0 4,0 9,0 0 0 3 2 N 1024,8 14 0 0,0
20.01.2017 19:00:00 4,3 -0,1 -0,8 4,0 9,0 2 1 8 4 O 1024,5 13 0 0,0
20.01.2017 18:00:00 7,7 1,1 5,0 3,9 9,0 4 2 8 4 OZO 1024,1 18 0 0,0
20.01.2017 17:00:00 9,2 1,1 7,3 3,9 9,0 6 3 12 6 OZO 1024,0 20 54 0,0
20.01.2017 16:00:00 10,0 1,1 12,0 3,9 9,0 8 4 13 7 OZO 1023,9 19 60 0,0
20.01.2017 15:00:00 9,7 0,8 15,0 3,9 9,0 10 5 17 9 OZO 1024,1 18 60 0,0
20.01.2017 14:00:00 6,8 -0,2 12,1 4,0 9,0 5 3 9 5 O 1024,7 13 60 0,0
20.01.2017 13:00:00 5,5 -1,9 2,5 4,0 9,1 2 1 6 4 OZO 1025,5 11 60 0,0
20.01.2017 12:00:00 2,8 -2,3 2,2 4,0 9,1 0 0 4 2 N 1026,7 8 60 0,0
20.01.2017 11:00:00 -1,7 -3,9 -2,5 4,1 9,1 3 2 5 3 NW 1027,2 5 60 0,0
20.01.2017 10:00:00 -3,7 -5,0 -7,8 4,1 9,1 3 2 4 2 NW 1026,9 3,9 60 0,0
20.01.2017 09:00:00 -5,6 -6,7 -10,3 4,2 9,1 0 0 5 3 N 1026,7 3,7 5 0,0
20.01.2017 08:00:00 -6,3 -7,4 -11,2 4,2 9,1 4 2 6 3 W 1026,9 3,9 0 0,0
20.01.2017 07:00:00 -7,1 -8,5 -10,9 4,3 9,1 0 0 3 2 N 1026,7 4,1 0 0,0
20.01.2017 06:00:00 -5,8 -6,9 -11,0 4,3 9,1 2 1 5 3 ZW 1026,7 4,5 0 0,0
20.01.2017 05:00:00 -6,5 -7,9 -11,2 4,4 9,1 0 0 4 2 N 1027,1 3,4 0 0,0
20.01.2017 04:00:00 -6,7 -7,9 -11,2 4,4 9,1 4 2 5 3 O 1027,3 4,2 0 0,0
20.01.2017 03:00:00 -6,4 -7,5 -11,0 4,4 9,2 0 0 2 1 N 1027,2 4,1 0 0,0
20.01.2017 02:00:00 -6,3 -7,4 -10,9 4,5 9,2 0 0 2 1 N 1027,4 3,1 0 0,0
20.01.2017 01:00:00 -6,3 -7,2 -10,7 4,5 9,2 0 0 0 0 N 1027,7 4,0 0 0,0
20.01.2017 00:00:00 -6,2 -7,4 -10,6 4,5 9,2 0 0 0 0 N 1028,1 4,3 0 0,0
19.01.2017 23:00:00 -5,8 -7,3 -10,4 4,5 9,2 0 0 3 2 N 1028,4 4,2 0 0,0
19.01.2017 22:00:00 -5,2 -6,7 -9,8 4,5 9,2 0 0 3 1 N 1028,5 7 0 0,0
19.01.2017 21:00:00 -4,4 -6,4 -8,9 4,5 9,2 0 0 4 2 N 1028,6 7 0 0,0
19.01.2017 20:00:00 -2,9 -5,7 -8,3 4,5 9,2 3 2 5 3 WZW 1028,6 8 0 0,0
19.01.2017 19:00:00 -2,4 -5,2 -6,9 4,5 9,2 4 2 6 3 WNW 1028,2 10 0 0,0
19.01.2017 18:00:00 -0,4 -5,6 -4,4 4,5 9,3 5 3 7 4 Z 1027,8 13 28 0,0
19.01.2017 17:00:00 1,5 -5,2 - - - 5 3 11 6 OZO 1027,8 16 - 0,0
19.01.2017 16:00:00 1,8 -4,7 5,4 4,6 9,3 7 4 19 11 O 1027,7 15 60 0,0
19.01.2017 15:00:00 1,9 -4,8 - - - 9 5 18 10 O 1027,9 12 - 0,0
19.01.2017 14:00:00 1,1 -4,8 5,6 4,6 9,3 10 5 17 9 O 1028,0 12 60 0,0
19.01.2017 13:00:00 0,1 -4,7 -0,4 4,7 9,3 10 5 16 9 O 1028,7 9 60 0,0
19.01.2017 12:00:00 -1,4 -4,6 -0,7 4,7 9,3 13 7 18 10 O 1029,4 10 60 0,0
19.01.2017 11:00:00 -3,5 -5,4 -3,9 4,8 9,3 7 4 12 6 O 1029,3 6 60 0,0
19.01.2017 10:00:00 -5,2 -6,6 -10,6 4,8 9,3 9 5 11 6 OZO 1029,2 6 60 0,0
19.01.2017 09:00:00 -8,1 -9,2 -12,5 4,9 9,3 6 3 8 4 OZO 1028,6 5 5 0,0
19.01.2017 08:00:00 -8,4 -9,6 -12,9 5,0 9,3 6 4 8 4 OZO 1028,2 5 0 0,0
19.01.2017 07:00:00 -8,2 -9,7 -13,4 5,0 9,3 4 2 6 4 OZO 1028,0 8 0 0,0
19.01.2017 06:00:00 -8,0 -9,2 -13,3 5,1 9,4 3 2 4 2 O 1027,9 8 0 0,0
19.01.2017 05:00:00 -7,9 -9,5 -12,6 5,1 9,3 0 0 5 3 N 1027,9 8 0 0,0
19.01.2017 04:00:00 -7,3 -9,2 -12,1 5,2 9,4 0 0 5 3 N 1028,1 7 0 0,0
19.01.2017 03:00:00 -6,9 -8,3 -12,1 5,2 9,4 2 1 6 3 NW 1028,2 6 0 0,0
19.01.2017 02:00:00 -7,2 -9,0 -11,7 5,3 9,4 2 1 5 3 N 1027,8 7 0 0,0
19.01.2017 01:00:00 -6,9 -8,6 -11,6 5,4 9,4 0 0 7 4 N 1028,1 5 0 0,0
19.01.2017 00:00:00 -6,3 -7,8 -11,6 5,4 9,4 3 1 3 2 WNW 1028,2 9 0 0,0
18.01.2017 23:00:00 -6,2 -8,2 -10,9 5,4 9,4 0 0 5 3 N 1028,2 9 0 0,0
18.01.2017 22:00:00 -4,9 -7,3 -9,1 5,5 9,4 4 2 5 3 W 1028,2 9 0 0,0
18.01.2017 21:00:00 -4,4 -7,3 -8,2 5,5 9,4 5 3 10 5 NW 1028,4 13 0 0,0
18.01.2017 20:00:00 -2,9 -7,6 -7,1 5,5 9,4 7 4 9 5 WZW 1028,2 18 0 0,0
18.01.2017 19:00:00 -2,6 -7,5 -6,5 5,5 9,4 6 3 9 5 WZW 1028,0 19 0 0,0
18.01.2017 18:00:00 -1,8 -7,7 -6,1 5,5 9,4 3 2 6 3 ZW 1028,0 20 0 0,0
18.01.2017 17:00:00 -0,8 -7,8 -1,7 5,5 9,4 5 3 9 5 W 1027,4 25 0 0,0
18.01.2017 16:00:00 -0,3 -7,8 0,7 5,5 9,4 4 2 13 7 ZW 1027,1 21 0 0,0
18.01.2017 15:00:00 -0,2 -7,3 2,3 5,6 9,4 3 2 16 9 N 1027,2 29 3 0,0
18.01.2017 14:00:00 -0,3 -7,1 2,6 5,6 9,4 11 6 17 9 NW 1026,9 29 23 0,0
18.01.2017 13:00:00 -0,5 -7,1 0,3 5,6 9,4 10 6 18 10 NW 1026,9 32 50 0,0
18.01.2017 12:00:00 -0,9 -6,7 0,3 5,7 9,4 10 5 15 8 NW 1027,3 20 60 0,0
18.01.2017 11:00:00 -1,9 -6,5 -2,5 5,8 9,4 9 5 17 9 NW 1027,7 20 60 0,0
18.01.2017 10:00:00 -3,2 -6,3 -7,5 5,8 9,4 8 4 11 6 WNW 1027,7 18 60 0,0
18.01.2017 09:00:00 -5,3 -7,6 -9,0 5,9 9,4 7 4 11 6 WNW 1027,3 8 13 0,0
18.01.2017 08:00:00 -5,2 -7,5 -8,8 5,9 9,5 6 4 10 5 WNW 1026,8 18 0 0,0
18.01.2017 07:00:00 -4,8 -7,4 -8,6 6,0 9,5 5 3 10 5 W 1026,5 19 0 0,0
18.01.2017 06:00:00 -4,7 -7,6 -8,1 6,0 9,5 7 4 12 6 W 1026,4 22 0 0,0
18.01.2017 05:00:00 -4,4 -7,3 -7,7 6,1 9,5 8 5 11 6 W 1026,6 22 0 0,0
18.01.2017 04:00:00 -4,8 -8,4 -7,7 6,1 9,5 10 5 13 7 WNW 1027,1 26 0 0,0
18.01.2017 03:00:00 -4,4 -8,0 -7,7 6,2 9,5 9 5 14 8 NW 1027,0 28 0 0,0
18.01.2017 02:00:00 -3,9 -8,4 -6,8 6,2 9,5 8 5 16 9 WNW 1027,0 30 0 0,0
18.01.2017 01:00:00 -2,9 -8,0 -5,9 6,3 9,5 8 4 22 12 NW 1027,4 33 0 0,0
18.01.2017 00:00:00 -1,8 -7,9 -4,5 6,3 9,5 12 7 24 13 NNW 1027,4 35 0 0,0
17.01.2017 23:00:00 -1,6 -7,1 -4,8 6,3 9,4 11 6 23 12 N 1027,3 31 0 0,0
17.01.2017 22:00:00 -0,9 -7,1 -4,7 6,4 9,5 12 6 20 11 NNW 1027,2 42 0 0,0
17.01.2017 21:00:00 -0,4 -7,0 -3,5 6,4 9,5 11 6 24 13 NW 1027,0 42 0 0,0
17.01.2017 20:00:00 0,2 -6,7 -2,5 6,4 9,5 15 8 27 15 NW 1026,7 53 0 0,0
17.01.2017 19:00:00 0,6 -6,3 -2,0 6,4 9,5 14 8 33 18 NW 1026,6 50 0 0,0
17.01.2017 18:00:00 1,6 -6,7 -0,9 6,5 9,5 17 9 36 19 NNW 1026,3 50 30 0,0
17.01.2017 17:00:00 2,9 -6,5 1,0 6,5 9,5 24 13 46 25 NNW 1025,9 58 60 0,0
17.01.2017 16:00:00 3,5 -6,5 3,9 6,5 9,5 30 16 45 24 NNW 1025,7 29 60 0,0
17.01.2017 15:00:00 3,7 -5,8 6,8 6,6 9,5 31 17 48 26 NNW 1025,6 28 60 0,0
17.01.2017 14:00:00 3,3 -4,9 8,2 6,6 9,4 24 13 48 26 NNW 1026,3 24 60 0,0
17.01.2017 13:00:00 2,5 -4,1 0,7 6,7 9,5 22 12 40 22 NNW 1027,1 23 60 0,0
17.01.2017 12:00:00 1,0 -4,4 0,6 6,7 9,5 26 14 36 19 NNW 1027,5 22 60 0,0
17.01.2017 11:00:00 0,0 -4,4 -0,3 6,8 9,5 14 8 31 17 NNW 1028,3 21 60 0,0
17.01.2017 10:00:00 -0,9 -4,3 - - - 15 8 26 14 NW 1027,9 18 - -
17.01.2017 09:00:00 -2,1 -4,1 -3,8 6,9 9,5 18 10 23 12 NW 1027,6 18 18 0,0
17.01.2017 08:00:00 -2,3 -4,3 -3,7 7,0 9,5 18 10 22 12 WNW 1027,2 20 0 0,0
17.01.2017 07:00:00 -1,7 -4,0 -3,6 7,0 9,5 15 8 22 12 WNW 1027,0 10 0 0,0
17.01.2017 06:00:00 -1,9 -3,9 -5,1 7,1 9,5 16 9 21 11 WNW 1026,6 10 0 0,0
17.01.2017 05:00:00 -3,0 -4,7 -5,3 7,1 9,5 13 7 17 9 NW 1026,8 20 0 0,0
17.01.2017 04:00:00 -2,6 -4,8 -4,7 7,1 9,5 13 7 19 10 NW 1026,8 10 0 0,0
17.01.2017 03:00:00 -1,7 -4,0 -5,3 7,2 9,5 13 7 15 8 WNW 1026,9 25 0 0,0
17.01.2017 02:00:00 -2,3 -3,9 -5,3 7,2 9,5 8 4 12 6 NW 1026,7 29 0 0,0
17.01.2017 01:00:00 -1,0 -2,7 -4,7 7,3 9,5 7 4 12 6 NNW 1026,4 32 0 0,0
17.01.2017 00:00:00 -0,3 -2,0 -4,0 7,3 9,5 7 4 12 7 NW 1026,2 30 0 0,0
16.01.2017 23:00:00 0,3 -1,8 -3,8 7,4 9,5 8 4 9 5 NNW 1025,9 36 0 0,0
16.01.2017 22:00:00 1,2 -1,2 -1,9 7,4 9,5 8 4 14 7 NNW 1025,6 47 0 0,0
16.01.2017 21:00:00 2,9 -0,7 0,0 7,4 9,5 9 5 13 7 NNW 1025,3 59 0 0,0
16.01.2017 20:00:00 3,3 -0,9 -0,5 7,3 9,5 8 4 17 9 NNW 1025,0 60 0 0,0
16.01.2017 19:00:00 3,7 -0,5 -0,3 7,3 9,5 8 4 22 12 NW 1024,6 58 0 0,0
16.01.2017 18:00:00 6,0 0,9 3,9 7,3 9,5 13 7 27 15 NW 1023,8 60 0 0,0
16.01.2017 17:00:00 7,7 1,7 6,5 7,3 9,5 19 11 34 18 NNW 1023,1 60 2 0,0
16.01.2017 16:00:00 8,5 2,7 7,9 7,2 9,5 21 12 42 23 NNW 1023,0 53 1 0,0
16.01.2017 15:00:00 9,0 3,8 8,4 7,2 9,5 23 13 40 22 NW 1022,5 60 2 0,0
16.01.2017 14:00:00 9,3 4,9 7,7 7,2 9,5 21 12 41 22 NNW 1022,5 60 1 0,0
16.01.2017 13:00:00 9,1 5,6 8,1 7,1 9,5 21 11 35 19 NNW 1022,6 38 0 0,0
16.01.2017 12:00:00 8,8 6,1 8,1 7,1 9,5 17 9 29 16 NW 1022,9 60 0 0,0
16.01.2017 11:00:00 9,0 6,4 8,0 7,1 9,5 24 13 35 19 NW 1022,7 10 0 0,0
16.01.2017 10:00:00 8,7 6,8 7,8 7,1 9,5 23 13 38 20 NW 1022,5 46 0 0,0
16.01.2017 09:00:00 8,4 6,9 7,5 7,1 9,5 18 10 31 17 WNW 1022,0 42 0 0,0
16.01.2017 08:00:00 8,3 6,9 7,5 7,0 9,5 18 10 29 16 WNW 1021,7 43 0 0,0
16.01.2017 07:00:00 8,3 6,9 7,3 7,0 9,5 19 10 29 16 WNW 1021,6 49 0 0,0
16.01.2017 06:00:00 8,0 7,1 7,5 7,0 9,5 17 9 26 14 WNW 1021,4 18 0 0,0
16.01.2017 05:00:00 8,0 6,9 7,4 7,0 9,5 15 8 24 13 WNW 1021,5 19 0 0,0
16.01.2017 04:00:00 7,9 7,0 7,2 7,0 9,5 14 8 25 14 WNW 1021,8 20 0 0,0
16.01.2017 03:00:00 7,8 6,9 7,0 7,0 9,5 16 8 23 12 WNW 1022,0 20 0 0,2
16.01.2017 02:00:00 7,4 6,5 6,6 6,9 9,5 15 8 23 12 WNW 1022,1 49 0 0,0
16.01.2017 01:00:00 7,1 6,0 6,4 7,0 9,5 14 8 27 14 W 1022,7 10 0 1,2
16.01.2017 00:00:00 6,9 5,8 6,1 6,9 9,5 18 10 29 16 W 1023,4 13 0 0,4
15.01.2017 23:00:00 6,5 5,4 5,8 7,0 9,5 14 7 22 12 W 1024,2 18 0 0,6
15.01.2017 22:00:00 6,3 5,3 5,3 6,9 9,5 14 8 22 12 WNW 1025,1 7 0 0,2
15.01.2017 21:00:00 5,7 4,5 5,1 6,9 9,5 8 4 18 10 NW 1025,5 10 0 0,2
15.01.2017 20:00:00 5,7 4,5 4,3 6,9 9,5 8 4 14 8 W 1025,9 20 0 0,0
15.01.2017 19:00:00 5,0 4,0 - - - 5 3 8 4 WZW 1026,3 15 - -
15.01.2017 18:00:00 5,0 3,8 4,7 6,9 9,5 5 3 10 5 W 1026,8 14 0 0,2
15.01.2017 17:00:00 5,2 3,7 5,0 6,9 9,5 7 4 19 10 W 1026,9 34 0 0,2
15.01.2017 16:00:00 5,6 3,9 5,9 6,9 9,5 14 8 21 11 WNW 1027,3 19 0 0,4
15.01.2017 15:00:00 5,5 3,5 5,5 6,8 9,5 11 6 25 14 WNW 1027,4 12 0 0,6
15.01.2017 14:00:00 6,0 3,8 6,8 6,8 9,5 13 7 24 13 WNW 1027,8 18 0 0,0
15.01.2017 13:00:00 6,2 3,7 6,6 6,8 9,5 15 8 22 12 WNW 1028,2 35 0 0,0
15.01.2017 12:00:00 5,6 3,4 6,6 6,9 9,5 14 8 21 11 WNW 1028,6 29 0 0,0
15.01.2017 11:00:00 5,4 3,1 6,1 6,8 9,5 14 8 22 12 WNW 1028,5 32 11 0,0

tt = temperatuur
td = dauwpunt
tt 5cm = temperatuur 5cm
tt -20cm = temperatuur -20cm
tt -100cm = temperatuur -100cm
ff = windsnelheid
fx = windstoten
dd = windrichting
ppp = luchtdruk
vv = zicht
sd = Zonneschijnduur
rr = neerslag

Weerstations in de omgeving